Regional Weather Roundup
Issued by NWS Charleston, SC

Current Version | Previous Version | Text Only | Print | Product List | Glossary Off
Versions: 1 2 3 4 5 6 7 8 9 10 11 12 13 14 15 16 17 18 19 20 21 22 23 24 25 26 27 28 29 30 31 32 33 34 35 36 37 38 39 40 41 42 43 44 45 46 47 48 49 50

000
ASUS42 KCHS 250013
RWRCHS

REGIONAL WEATHER ROUNDUP
NATIONAL WEATHER SERVICE CHARLESTON SC
800 PM EDT WED AUG 24 2016

NOTE: "FAIR" INDICATES FEW OR NO CLOUDS BELOW 12,000 FEET WITH NO
SIGNIFICANT WEATHER AND/OR OBSTRUCTIONS TO VISIBILITY.

NOT ALL STATIONS ARE QUALITY CONTROLLED. USE DATA WITH CAUTION...
ESPECIALLY DEWPOINT OBSERVATIONS.

SCZ027-030-031-034>040-042>050-250100-
...SOUTHEAST SOUTH CAROLINA...

CITY           SKY/WX    TMP DP  RH WIND       PRES   REMARKS
N CHARLESTON   MOCLDY    81  63  54 E8        30.17S
6HR MIN TEMP:  81; 6HR MAX TEMP:  90;

WATERFRONT PRK   N/A     83  70  64 E8        30.15S
MOUNT PLEASANT FAIR      77  70  78 CALM      30.17S
JOHNS ISLAND   FAIR      79  68  69 E6        30.17S
PINOPOLIS        N/A     84  68  58 E5        30.10S
MONCKS CORNER  FAIR      77  66  69 CALM      30.18R
SUMMERVILLE    FAIR      81  70  69 CALM      30.18S
BEAUFORT MCAS  PTCLDY    81  68  64 SE5       30.17S
6HR MIN TEMP:  81; 6HR MAX TEMP:  90;

BEAUFORT ARPT  FAIR      81  64  57 E5        30.17R
HILTON HEAD IS NOT AVBL
WALTERBORO     PTCLDY    82  68  61 CALM      30.18S
ALLENDALE      FAIR      84  63  48 CALM      30.16S

...SOUTHERN MIDLANDS AND PEE DEE...

CITY           SKY/WX    TMP DP  RH WIND       PRES   REMARKS
GEORGETOWN     FAIR      77  64  65 E3        30.19R
KINGSTREE      FAIR      77  63  61 CALM      30.18R
ORANGEBURG     CLOUDY    83  63  50 SE3       30.18R
6HR MIN TEMP:  83; 6HR MAX TEMP:  91;

BARNWELL       NOT AVBL
AIKEN          MOCLDY    82  68  61 CALM      30.21S
MANNING        FAIR      79  66  65 CALM      30.18R
COLUMBIA       MOCLDY    85  64  49 SE8       30.17R
6HR MIN TEMP:  85; 6HR MAX TEMP:  91;

SUMTER         CLOUDY    84  64  50 SE3       30.16R
6HR MIN TEMP:  84; 6HR MAX TEMP:  89;

FLORENCE       CLOUDY    83  64  52 SE7       30.19R
6HR MIN TEMP:  83; 6HR MAX TEMP:  91;

MYRTLE BEACH   PTCLDY    81  63  54 E7        30.20R
N MYRTLE BEACH CLEAR     77  63  61 NE6       30.17S
6HR MIN TEMP:  77; 6HR MAX TEMP:  88;


$$

GAZ063-065-086>088-099>101-113>116-118-119-134>141-150-250100-
...SOUTHEAST GEORGIA...

CITY           SKY/WX    TMP DP  RH WIND       PRES   REMARKS
SAVANNAH ARPT  MOCLDY    82  63  52 E10       30.17S
6HR MIN TEMP:  82; 6HR MAX TEMP:  91;

HUNTER AAF     CLEAR     80  70  69 E5        30.14S
6HR MIN TEMP:  80; 6HR MAX TEMP:  88;

FORT STEWART   CLEAR     81  68  63 E3        30.14S
6HR MIN TEMP:  81; 6HR MAX TEMP:  90;

STATESBORO     PTCLDY    84  70  63 SE6       30.16S
SYLVANIA       PTCLDY   N/A N/A N/A E3        30.17S
CLAXTON        FAIR      83  69  63 E3        30.15S

...CSRA...CENTRAL AND FAR SOUTHEAST GEORGIA...

CITY           SKY/WX    TMP DP  RH WIND       PRES   REMARKS
THOMSON        MOCLDY    82  75  79 MISG      30.22S
AUGUSTA-BUSH   MOCLDY    82  69  64 N6        30.15F
6HR MIN TEMP:  82; 6HR MAX TEMP:  91;

AUGUSTA-DANIEL MOCLDY    84  68  58 N6        30.18F
SWAINSBORO     CLOUDY    84  68  58 CALM      30.17R
VIDALIA        PTCLDY    84  70  61 NE6       30.15S
EASTMAN        FAIR      87  52  29 E3        30.18R
HAZLEHURST     FAIR      86  71  61 CALM      30.14R HX  91
ALMA           CLEAR     83  69  62 E7        30.15R
6HR MIN TEMP:  83; 6HR MAX TEMP:  92;

WAYCROSS         N/A     86  73  66 SE8       30.15S HX  93
JESUP          FAIR      81  72  74 E5        30.16S
BAXLEY         FAIR      82  75  78 SE6       30.15S
BRUNSWICK      CLEAR     81  72  74 NE8       30.17R
SAINT SIMONS   CLEAR     83  69  62 E13       30.15S
6HR MIN TEMP:  83; 6HR MAX TEMP:  90;


$$

SCZ027-028-034-036>038-045-046-048>050-GAZ119-141-250100-
...LAKE AND SUPPLEMENTAL COASTAL OBSERVATIONS...

STATION/POSITION TIME  TEMP    WIND        PRES    WAVE   SWELL
                       AIR SEA DIR/SP/G            HT/PER HT/PER/DIR
                 (UTC) (F)     (DEG/KT/KT) (MB)    (FT/S) (FT/S/D)
WINYAH BAY       NOT AVBL
LAKE MURRAY      2300   88      40/  1/  7 1021.0S
ACE BASIN NERRS  NOT AVBL
FORT PULASKI     2300   83 87              1021.9S
SAPELO ISLAND    2300   84      70/  9     1021.0S

$$

ANZ835-935-AMZ111-154-330-350-352-354-370-450-454-472-250100-
...C-MAN AND BUOY OBSERVATIONS...

STATION/POSITION TIME  TEMP    WIND        PRES    WAVE   SWELL
                       AIR SEA DIR/SP/G            HT/PER HT/PER/DIR
                 (UTC) (F)     (DEG/KT/KT) (MB)    (FT/S) (FT/S/D)
BUOY 41004       2350   81 84   50/ 14/ 16 1020.7F   4/ 6   2/ 90/ 8
BUOY 41008       2350   83 85   70/ 16/ 19 1020.9R   5/ 6   2/ 80/ 8
FOLLY BEACH CMAN 0000   82      80/ 11/ 13 1021.9R
CAPERS NEARSHORE 2308   82 84   90/ 10/ 16 1021.4F
FRIPP NEARSHORE  2308   83 87  100/ 14/ 17 1021.0R


STATION/POSITION TIME  TEMP    WIND        PRES    WAVE   SWELL
                       AIR SEA DIR/SP/G            HT/PER HT/PER/DIR
                 (UTC) (F)     (DEG/KT/KT) (MB)    (FT/S) (FT/S/D)
5E ST. MARYS GA  2301      84                N/A     5/ 5
FRYING PAN BUOY  2300   81 85   30/ 14/ 17 1021.1F
BUOY 41025       2350   81 84   80/ 12/ 14 1022.2F   3/11   2/100/11
CAPE LOOKOUT NC  0000   81      80/ 10/ 11 1021.8R
BUOY 41002       2350   82 85   50/ 14/ 17 1019.3R   5/10   2/110/10
BUOY 41010       NOT AVBL
ST AUGUSTINE FL  0000   82 84   50/ 19/ 21 1021.0R


$$



USA.gov is the U.S. government's official web portal to all federal, state and local government web resources and services.